Location: Anglesey
(53.1800°N, 4.2200°W)
Time: 22:11:35
(UTC+01:00)

MOZHAYETS 4 - Visible Passes

Search period start: 18 June 2018 00:00
Search period end: 28 June 2018 00:00
Orbit: 662 x 681 km, 98.0° (Epoch: 18 June)

Date Brightness Start Highest point End Pass type
(mag) Time Alt. Az. Time Alt. Az. Time Alt. Az.
18 Jun 9.3 02:25:01 10° SE 02:29:10 34° ENE 02:33:19 10° N visible
19 Jun 10.5 01:24:00 10° ENE 01:25:55 13° NE 01:27:50 10° NNE visible
19 Jun 8.2 02:57:40 10° SSE 03:02:13 63° ENE 03:06:47 10° N visible
20 Jun 10.1 01:55:18 10° ESE 01:58:43 21° ENE 02:02:07 10° N visible
20 Jun 7.8 03:30:50 10° S 03:35:26 69° WSW 03:40:02 10° NNW visible
21 Jun 9.2 02:27:27 10° SE 02:31:38 36° ENE 02:35:50 10° N visible
22 Jun 10.5 01:26:17 10° ENE 01:28:22 13° NE 01:30:27 10° NNE visible
22 Jun 8.1 03:00:09 10° SSE 03:04:42 66° ENE 03:09:16 10° N visible
23 Jun 10.0 01:57:41 10° ESE 02:01:10 22° ENE 02:04:38 10° N visible
23 Jun 7.8 03:33:20 10° S 03:37:55 66° WSW 03:42:30 10° NNW visible
24 Jun 9.1 02:29:53 10° SE 02:34:06 37° ENE 02:38:19 10° N visible
25 Jun 10.4 01:28:36 10° E 01:30:48 14° NE 01:33:02 10° NNE visible
25 Jun 8.0 03:02:37 10° SSE 03:07:11 69° ENE 03:11:45 10° N visible
26 Jun 9.9 02:00:04 10° ESE 02:03:37 23° ENE 02:07:10 10° N visible
26 Jun 7.8 03:35:51 10° S 03:40:24 62° WSW 03:44:58 10° NNW visible
27 Jun 9.0 02:32:18 10° SE 02:36:33 39° ENE 02:40:49 10° N visible
